Location: Cardiff
(53.7833°N, 113.6000°W)
Time: 03:28:32
(UTC+00:00)

Envisat - Visible Passes

Search period start: 19 June 2024 00:00
Search period end: 29 June 2024 00:00
Orbit: 762 x 764 km, 98.3° (Epoch: 18 June)

Date Brightness Start Highest point End Pass type
(mag) Time Alt. Az. Time Alt. Az. Time Alt. Az.
19 Jun 5.4 09:35:13 10° NE 09:38:28 17° E 09:41:42 10° SE visible
21 Jun 4.9 09:58:48 10° NE 10:03:01 26° E 10:07:12 10° SSE visible
22 Jun 5.5 09:22:42 10° NE 09:25:08 13° E 09:27:33 10° ESE visible
24 Jun 5.2 09:45:56 10° NE 09:49:43 21° E 09:53:28 10° SE visible
25 Jun 5.8 09:11:01 10° ENE 09:11:45 10° E 09:12:30 10° E visible
26 Jun 4.6 10:09:42 10° NNE 10:14:13 31° E 10:18:42 10° SSE visible
27 Jun 5.4 09:33:12 10° NE 09:36:24 16° E 09:39:33 10° SE visible
